PROGRESS-MS 06

Last updated on Fri Dec 29 2017 00:15:07 GMT+0000 (Coordinated Universal Time)

1 42756U 17033A 17361.53692593 .00001778 00000-0 33974-4 0 9991 2 42756 51.6414 154.4377 0002507 297.8505 171.2653 15.54221350 30510
UTC large
Height (km)
Speed (km/s)
/
Latitude / Longitude
Inclination (degrees)
Orbital Period (minutes)
Azimuth
Elevation
Range (km)
Doppler Factor

Next 0 passes for location: London (51.5072 / 0.1276)

Sorry there are no passes over London.